DW6569 Weather Reports


time (UTC)temp
C
wind
direction
speed
KPH
gust
KPH
rain 1hr
cm
rain 24hr
cm
rain mn
cm
humidity
%
barometer
mb
20260504214004 22 0 0.0 0.0 0.00 0.23 0.23 47 1012.1
20260504213004 22 0 0.0 0.0 0.00 0.23 0.23 48 1012.1
20260504211005 23 0 0.0 0.0 0.00 0.23 0.23 48 1011.8
20260504210005 23 0 0.0 0.0 0.00 0.23 0.23 49 1011.8
20260504205004 23 0 0.0 0.0 0.00 0.23 0.23 50 1011.8
20260504204005 22 0 0.0 0.0 0.00 0.23 0.23 51 1011.5
20260504203004 22 0 0.0 0.0 0.00 0.23 0.23 48 1011.5
20260504202005 23 0 0.0 0.0 0.00 0.23 0.23 52 1011.5
20260504201005 22 0 0.0 0.0 0.00 0.23 0.23 54 1011.1
20260504200005 22 0 0.0 0.0 0.00 0.23 0.23 53 1011.5
20260504195004 22 0 0.0 0.0 0.00 0.23 0.23 54 1011.8
20260504194005 22 0 0.0 0.0 0.00 0.23 0.23 55 1012.4
20260504193005 21 0 0.0 0.0 0.00 0.23 0.23 55 1012.5
20260504192005 21 0 0.0 0.0 0.00 0.23 0.23 54 1012.8
20260504191005 21 0 0.0 0.0 0.00 0.23 0.23 55 1012.8
20260504190005 21 0 0.0 0.0 0.00 0.23 0.23 55 1013.2
20260504184005 21 0 0.0 0.0 0.00 0.23 0.23 55 1013.5
20260504183006 21 0 0.0 0.0 0.00 0.23 0.23 58 1013.5
20260504182005 20 0 0.0 0.0 0.00 0.23 0.23 57 1013.5
20260504181005 20 0 0.0 0.0 0.00 0.23 0.23 58 1013.5
20260504180005 20 0 0.0 0.0 0.00 0.23 0.23 58 1013.5
20260504175005 20 0 0.0 0.0 0.00 0.23 0.23 57 1014.2
20260504174004 19 0 0.0 0.0 0.00 0.23 0.23 60 1014.2
20260504173005 18 0 0.0 0.0 0.00 0.23 0.23 59 1014.2
20260504172006 18 0 0.0 0.0 0.00 0.23 0.23 60 1014.5
20260504171004 18 0 0.0 0.0 0.00 0.23 0.23 60 1014.5
20260504151004 11 0 0.0 0.0 0.00 0.23 0.23 86 1016.2
20260504141005 7 0 0.0 0.0 0.23 0.23 0.23 87 1016.5
20260504082005 5 0 0.0 0.0 0.00 0.00 0.00 77 1015.2
20260504081005 5 0 0.0 0.0 0.00 0.00 0.00 76 1015.2
20260504050005 6 0 0.0 0.0 0.00 0.00 0.00 67 1015.9
20260504045005 6 0 0.0 0.0 0.00 0.00 0.00 66 1015.9
20260504044006 7 0 0.0 0.0 0.00 0.00 0.00 65 1015.9
20260504041006 7 0 0.0 0.0 0.00 0.00 0.00 64 1015.5
20260504040007 7 0 0.0 0.0 0.00 0.00 0.00 63 1015.5
20260504035006 8 0 0.0 0.0 0.00 0.00 0.00 62 1015.5
20260504032005 8 0 0.0 0.0 0.00 0.00 0.00 60 1015.5
20260504031006 8 0 0.0 0.0 0.00 0.00 0.00 60 1015.5
20260504030006 8 0 0.0 0.0 0.00 0.00 0.00 59 1015.3
20260504024006 9 0 0.0 0.0 0.00 0.00 0.00 58 1015.2
20260504023007 10 0 0.0 0.0 0.00 0.00 0.00 57 1015.2
20260504022006 10 0 0.0 0.0 0.00 0.00 0.00 57 1015.2
20260504021007 10 0 0.0 0.0 0.00 0.00 0.00 57 1015.2
20260504020006 10 0 0.0 0.0 0.00 0.00 0.00 57 1015.0
20260504014006 10 0 0.0 0.0 0.00 0.00 0.00 56 1014.5
20260504013006 10 0 0.0 0.0 0.00 0.00 0.00 55 1014.9
20260504012006 11 0 0.0 0.0 0.00 0.00 0.00 54 1014.9
20260504011006 11 0 0.0 0.0 0.00 0.00 0.00 54 1014.5
20260504010006 11 0 0.0 0.0 0.00 0.00 0.00 52 1014.5
20260504005005 12 0 0.0 0.0 0.00 0.00 0.00 53 1014.6
20260504004006 12 0 0.0 0.0 0.00 0.00 0.00 53 1014.8
20260504003007 12 0 0.0 0.0 0.00 0.00 0.00 52 1014.9
20260504001006 13 0 0.0 0.0 0.00 0.00 0.00 52 1014.5
20260504000007 13 0 0.0 0.0 0.00 0.00 0.00 52 1014.5
20260503235006 13 0 0.0 0.0 0.00 0.00 0.00 50 1014.3
20260503234006 14 0 0.0 0.0 0.00 0.00 0.00 48 1014.2
20260503233006 14 0 0.0 0.0 0.00 0.00 0.00 46 1014.5
20260503232005 15 0 0.0 0.0 0.00 0.00 0.00 46 1014.5
20260503225006 15 0 0.0 0.0 0.00 0.00 0.00 45 1014.9
20260503224006 15 0 0.0 0.0 0.00 0.00 0.00 44 1015.2
20260503223007 15 0 0.0 0.0 0.00 0.00 0.00 44 1015.2
20260503222008 16 0 0.0 0.0 0.00 0.00 0.00 42 1015.2
20260503221004 16 0 0.0 0.0 0.00 0.00 0.00 43 1015.2
20260503220004 16 0 0.0 0.0 0.00 0.00 0.00 43 1015.2
20260503215004 16 0 0.0 0.0 0.00 0.00 0.00 41 1015.5